Home   Weather   Campo Grande   Past weeks

Flag for Brazil Past Weather in Campo Grande, Mato Grosso Do Sul, Brazil — Yesterday and Last 2 Weeks

Now
77 °F

Passing clouds.


Feels Like: 78 °F
Forecast: 52 / 74 °F
Wind: 5 mph from East

Location: Campo Grande Aeroporto

Current Time: Apr 28, 2017 at 4:24:39 pm

Latest Report: Apr 28, 2017 at 3:00 pm


Visibility: N/A

Pressure: 30.07 "Hg (28.34 "Hg at 516m altitude)

Humidity: 34%

Dew Point: 46 °F

Location of Campo GrandeLocation

Past Weather in Campo Grande — Graph

°F

Campo Grande Temperature Yesterday

Maximum temperature yesterday: 70 °F (at 2:00 pm)
Minimum temperature yesterday: 54 °F (at 6:00 am)
Average temperature yesterday: 61 °F

High & Low Weather Summary for the Past Weeks

 TemperatureHumidityPressure
High91 °F (Apr 15, 1:00 pm)100% (Apr 17, 3:00 am)30.18 "Hg (Apr 17, 3:00 am)
Low45 °F (Apr 20, 12:18 pm)19% (Apr 14, 4:00 pm)29.80 "Hg (Apr 25, 3:00 pm)
Average70 °F77%29.99 "Hg
* Reported Apr 13 3:00 pm — Apr 28 3:00 pm, Campo Grande, Weather by CustomWeather, © 2017

Note: Actual official high and low records may vary slightly from our data, if they occured in-between our weather recording intervals... More about our weather records

Advertising

Campo Grande Weather History for the Previous 24 Hours

Scroll right to see more
 ConditionsComfort  
Time TempWeatherWind HumidityBarometerVisibility
3:00 pm
Fri, Apr 28
77 °FPassing clouds.5 mph34%30.07 "HgN/A
2:00 pm77 °FSunny.6 mph34%30.09 "Hg10 mi
1:00 pm75 °FPassing clouds.6 mph36%30.09 "HgN/A
12:00 pm75 °FPassing clouds.5 mph36%30.12 "HgN/A
11:00 am72 °FPassing clouds.8 mph44%30.15 "HgN/A
10:00 am68 °FPassing clouds.10 mph49%30.18 "HgN/A
9:00 am64 °FSunny.13 mph52%30.18 "Hg10 mi
8:00 am59 °FSunny.10 mph59%30.15 "Hg10 mi
7:00 am55 °FSunny.10 mph67%30.15 "Hg10 mi
6:00 am54 °FSunny.9 mph72%30.12 "Hg10 mi
5:00 am54 °FClear.8 mph72%30.09 "Hg10 mi
4:00 am54 °FClear.10 mph72%30.09 "Hg10 mi
3:00 am54 °FClear.12 mph67%30.09 "Hg10 mi
2:00 am55 °FClear.12 mph67%30.09 "Hg10 mi
1:00 am57 °FClear.9 mph67%30.12 "Hg10 mi
12:00 am57 °FClear.12 mph67%30.12 "Hg10 mi
11:00 pm
Thu, Apr 27
59 °FClear.13 mph63%30.12 "Hg10 mi
10:00 pm61 °FClear.14 mph59%30.12 "Hg10 mi
9:00 pm61 °FClear.12 mph63%30.12 "Hg10 mi
8:00 pm61 °FPassing clouds.12 mph63%30.12 "HgN/A
7:00 pm63 °FClear.10 mph59%30.09 "Hg10 mi
6:00 pm64 °FClear.7 mph60%30.09 "Hg10 mi
5:00 pm66 °FSunny.12 mph52%30.09 "Hg10 mi
4:00 pm66 °FPassing clouds.10 mph52%30.07 "HgN/A
Weather by CustomWeather, © 2017

See weather overviewHow to use our weather pages